Location: ???? ????
(41.4149°N, 22.8816°E)
Time: 14:51:11
(UTC+00:00)

Cosmos 1743 - Pass Details

Date: 14 July 2020
Orbit: 511 x 526 km, 82.6° (Epoch: 04 August)

Event Time Altitude Azimuth Distance (km) Brightness Sun altitude
Exits shadow 01:27:34 23° 185° (S) 1,112 3.9 -15.3°
Maximum altitude 01:29:50 87° 95° (E) 521 2.6 -15.0°
Drops below altitude 10° 01:33:40 10° 8° (N) 1,751 6.2 -14.5°
Sets 01:35:49 0° 9° (N) 2,646 7.3 -14.2°
